This demonstration page uses our WeatherBlox Daily Observations layout. Learn more.

Left ArrowRight Arrow

40.92945, -100.16068

Hourly Observations for June 27, 2016

Temp ( °F °C ) Dew Point ( °F °C ) Humidity (%) Winds ( mph kmh ) Pressure ( in mb ) Visibility ( mi km ) Precip ( " mm )
12:15 am 00:15 Mostly Cloudy with Thunderstorms 71 21.6 56 13.3 59 59 SE 6 9 30.03 1017 10 16 N/A
12:35 am 00:35 Clear with Nearby Thunderstorms 70 20.9 57 13.7 64 64 W 3 6 30.06 1018 10 16 N/A
12:55 am 00:55 Clear 71 21.9 58 14.5 63 63 S 8 13 30.06 1018 10 16 N/A
1:15 am 01:15 Clear 70 21.3 59 15.1 68 68 SSW 8 13 30.09 1019 10 16 N/A
1:35 am 01:35 Clear 70 20.9 58 14.7 68 68 S 12 19 30.09 1019 10 16 N/A
1:55 am 01:55 Partly Cloudy 70 20.9 58 14.5 67 67 SSE 6 9 30.09 1019 10 16 N/A
2:15 am 02:15 Clear 68 20.2 58 14.4 69 69 S 10 17 30.06 1018 10 16 N/A
2:35 am 02:35 Clear 68 19.9 58 14.2 70 70 W 5 7 30.09 1019 10 16 N/A
2:55 am 02:55 Partly Cloudy 67 19.5 57 14.1 71 71 SSW 6 9 30.06 1018 10 16 N/A
3:15 am 03:15 Clear with Thunderstorms 65 18.6 59 15.2 81 81 NNW 9 15 30.12 1020 10 16 N/A
3:35 am 03:35 Mostly Cloudy with Light Rain 66 19.1 59 15 77 77 NNW 8 13 30.12 1020 10 16 N/A
3:55 am 03:55 Mostly Cloudy 65 18.5 59 15 80 80 N 10 17 30.12 1020 10 16 N/A
4:15 am 04:15 Partly Cloudy 65 18.1 59 14.8 81 81 N 8 13 30.15 1021 10 16 N/A
4:35 am 04:35 Clear 65 18.5 59 15 80 80 N 7 11 30.12 1020 10 16 N/A
4:55 am 04:55 Clear 67 19.7 58 14.5 72 72 NNW 9 15 30.12 1020 10 16 N/A
5:15 am 05:15 Clear 66 18.7 59 15.1 80 80 WSW 10 17 30.12 1020 10 16 N/A
5:35 am 05:35 Clear 66 18.8 59 15.2 80 80 WNW 10 17 30.12 1020 10 16 N/A
5:55 am 05:55 Partly Cloudy 66 18.8 60 15.4 81 81 WNW 10 17 30.09 1019 10 16 N/A
6:15 am 06:15 Partly Cloudy 66 18.7 60 15.7 83 83 NW 7 11 30.09 1019 10 16 N/A
6:35 am 06:35 Cloudy 68 20.2 58 14.6 70 70 NNW 9 15 30.09 1019 10 16 N/A
6:55 am 06:55 Partly Cloudy 71 21.7 56 13.1 58 58 NW 16 26 30.06 1018 10 16 N/A
7:15 am 07:15 Sunny 70 21 57 13.8 64 64 W 8 13 30.09 1019 10 16 N/A
7:35 am 07:35 Sunny 70 21 57 14 64 64 W 5 7 30.09 1019 10 16 N/A
7:55 am 07:55 Sunny 70 20.9 58 14.3 66 66 S 7 11 30.09 1019 10 16 N/A
8:15 am 08:15 Sunny 70 20.9 59 15 69 69 S 8 13 30.09 1019 10 16 N/A
8:35 am 08:35 Sunny 72 22.2 61 16.3 69 69 W 6 9 30.09 1019 10 16 N/A
8:55 am 08:55 Sunny 73 22.8 62 16.6 68 68 N 10 17 30.09 1019 10 16 N/A
9:15 am 09:15 Sunny 75 24 60 15.7 60 60 ENE 6 9 30.12 1020 10 16 N/A
9:35 am 09:35 Sunny 76 24.5 60 15.8 58 58 E 13 20 30.12 1020 7 11 N/A
9:55 am 09:55 Sunny 76 24.4 60 15.4 57 57 E 10 17 30.12 1020 10 16 N/A
10:15 am 10:15 Sunny 77 24.8 60 15.8 57 57 E 10 17 30.12 1020 10 16 N/A
10:35 am 10:35 Sunny 78 25.8 59 15.1 52 52 ESE 8 13 30.09 1019 10 16 N/A
10:55 am 10:55 Sunny 77 24.9 59 15 54 54 E 6 9 30.12 1020 10 16 N/A
11:15 am 11:15 Sunny 80 26.5 59 15 49 49 NE 6 9 30.09 1019 10 16 N/A
11:35 am 11:35 Sunny 80 26.5 61 16 53 53 ENE 12 19 30.09 1019 10 16 N/A
11:55 am 11:55 Sunny 80 26.7 60 15.7 51 51 E 9 15 30.09 1019 10 16 N/A
12:15 pm 12:15 Sunny 81 27 61 15.9 51 51 ENE 7 11 30.09 1019 10 16 N/A
12:35 pm 12:35 Sunny 81 27.2 61 16.1 51 51 NE 8 13 30.09 1019 10 16 N/A
12:55 pm 12:55 Sunny 81 27.4 61 16.2 50 50 ENE 9 15 30.09 1019 10 16 N/A
1:15 pm 13:15 Sunny 82 27.6 61 16.3 50 50 E 9 15 30.09 1019 10 16 N/A
1:35 pm 13:35 Sunny 82 27.8 62 16.7 51 51 ENE 7 11 30.09 1019 10 16 N/A
1:55 pm 13:55 Sunny 82 27.8 61 16 49 49 ENE 3 6 30.09 1019 10 16 N/A
2:15 pm 14:15 Sunny 83 28.1 65 18.1 55 55 NE 6 9 30.09 1019 10 16 N/A
2:35 pm 14:35 Sunny 82 28 64 17.8 54 54 NNE 7 11 30.06 1018 10 16 N/A
2:55 pm 14:55 Sunny 83 28.3 64 17.9 53 53 ENE 10 17 30.06 1018 10 16 N/A
3:15 pm 15:15 Sunny 83 28.2 65 18.2 55 55 ENE 10 17 30.06 1018 10 16 N/A
3:35 pm 15:35 Sunny 83 28.5 65 18.2 54 54 ENE 8 13 30.06 1018 10 16 N/A
3:55 pm 15:55 Partly Cloudy 84 28.8 64 17.9 52 52 ENE 8 13 30.03 1017 10 16 N/A
4:15 pm 16:15 Partly Cloudy 83 28.5 65 18.1 53 53 ENE 8 13 30.06 1018 10 16 N/A
4:35 pm 16:35 Partly Cloudy 83 28.5 64 18 53 53 E 7 11 30.06 1018 10 16 N/A
4:55 pm 16:55 Partly Cloudy 83 28.5 65 18.1 53 53 ENE 7 11 30.06 1018 10 16 N/A
5:15 pm 17:15 Sunny 82 27.8 66 18.9 58 58 ENE 6 9 30.06 1018 10 16 N/A
5:35 pm 17:35 Sunny 83 28.3 65 18.6 56 56 E 8 13 30.06 1018 10 16 N/A
5:55 pm 17:55 Sunny 81 27.1 66 19.1 62 62 ENE 7 11 30.06 1018 10 16 N/A
6:15 pm 18:15 Sunny 80 26.6 66 19 63 63 ENE 7 11 30.06 1018 10 16 N/A
6:35 pm 18:35 Partly Cloudy 79 26.3 67 19.7 67 67 NE 6 9 30.06 1018 10 16 N/A
6:55 pm 18:55 Partly Cloudy 80 26.5 68 19.8 67 67 NNE 5 7 30.06 1018 10 16 N/A
7:15 pm 19:15 Sunny 80 26.5 69 20.4 69 69 NNE 3 6 30.06 1018 10 16 N/A
7:35 pm 19:35 Partly Cloudy 79 26.2 69 20.3 70 70 NE 5 7 30.06 1018 10 16 N/A
7:55 pm 19:55 Sunny 78 25.6 67 19.7 70 70 ENE 7 11 30.06 1018 10 16 N/A
8:15 pm 20:15 Sunny 77 24.8 63 17.4 64 64 ENE 8 13 30.09 1019 10 16 N/A
8:35 pm 20:35 Sunny 75 24.1 63 17.4 66 66 ENE 9 15 30.09 1019 10 16 N/A
8:55 pm 20:55 Sunny 75 24 62 16.4 63 63 ENE 12 19 30.09 1019 10 16 N/A
9:15 pm 21:15 Clear 74 23.6 60 15.6 61 61 ENE 9 15 30.09 1019 10 16 N/A
9:35 pm 21:35 Clear 73 23 60 15.5 63 63 ENE 9 15 30.09 1019 10 16 N/A
9:55 pm 21:55 Clear 73 22.6 60 15.5 64 64 E 9 15 30.09 1019 10 16 N/A
10:15 pm 22:15 Clear 73 22.5 59 15 63 63 E 8 13 30.09 1019 10 16 N/A
10:35 pm 22:35 Clear 73 22.5 59 15 63 63 E 8 13 30.12 1020 10 16 N/A
10:55 pm 22:55 Clear 71 21.8 59 15.2 66 66 ENE 7 11 30.15 1021 7 11 N/A
11:15 pm 23:15 Clear 70 20.9 60 15.5 71 71 ENE 8 13 30.15 1021 10 16 N/A
11:35 pm 23:35 Partly Cloudy 69 20.6 60 15.5 73 73 NE 9 15 30.18 1022 10 16 N/A
11:55 pm 23:55 Partly Cloudy 69 20.7 60 15.5 72 72 ENE 9 15 30.18 1022 10 16 N/A

Powered by AerisWeather